Mobile, AL

6:28 AM CDT on July 25, 2017 (GMT -0500)
Mobile Regional

Weather History for KMOB - July, 2012

Change the Weather History Date:

Friday, July 6, 2012

  Actual Average Record
Temperature  
Mean Temperature 81 °F 82 °F  
Max Temperature 87 °F 91 °F 99 °F (1877)
Min Temperature 75 °F 73 °F 64 °F (1882)
Cooling Degree Days 16 17  
Month to date cooling degree days 109 100  
Year to date cooling degree days 1266 989  
Since 1 June cooling degree days 560 544  
Growing Degree Days 31 (Base 50)    
Moisture  
Dew Point 72 °F    
Average Humidity 76    
Maximum Humidity 94    
Minimum Humidity 57    
Precipitation  
Precipitation 0.06 in 0.23 in 6.34 in (2005)
Month to date precipitation 0.23 1.36  
Year to date precipitation 40.24 34.31  
Sea Level Pressure  
Sea Level Pressure 30.02 in    
Wind  
Wind Speed 4 mph (SSW)    
Max Wind Speed 17 mph    
Max Gust Speed 23 mph    
Visibility 9 miles    
Events Rain    
T = Trace of Precipitation, MM = Missing Value Source: NWS Daily Summary

Daily Weather History Graph

Daily Weather History Graph

Search for Another Location

Airport or City:

Trip Planner

Search our weather history database for the weather conditions in past years. The results will help you decide how hot, cold, wet, or windy it might be!

Date:

Astronomy

Jul. 06, 2012 Rise Set
Actual Time 5:56 AM CDT 7:59 PM CDT
Civil Twilight 5:28 AM CDT 8:26 PM CDT
Nautical Twilight 4:55 AM CDT 9:00 PM CDT
Astronomical Twilight 4:19 AM CDT 9:35 PM CDT
Moon 10:06 PM CDT (7/6) 9:00 AM CDT (7/6)
Length of Visible Light 14h 58m
Length of Day
14h 03m
Waning Gibbous, 89% of the Moon is Illuminated
Jul 6
Waning Gibbous
Jul 10
Last Quarter
Jul 18
New
Jul 26
First Quarter
Aug 1
Full

Hourly Weather History & Observations

Time (CDT) Temp. Heat Index Dew Point Humidity Pressure Visibility Wind Dir Wind Speed Gust Speed Precip Events Conditions
12:56 AM 80.1 °F 84.5 °F 73.9 °F 81% 30.00 in 10.0 mi SW 5.8 mph - N/A   Partly Cloudy
1:56 AM 79.0 °F - 73.9 °F 84% 29.97 in 10.0 mi SW 6.9 mph - N/A   Partly Cloudy
2:56 AM 78.1 °F - 73.9 °F 87% 29.98 in 10.0 mi Calm Calm - N/A   Partly Cloudy
3:56 AM 77.0 °F - 73.9 °F 90% 30.00 in 8.0 mi West 3.5 mph - N/A   Scattered Clouds
4:56 AM 75.9 °F - 73.9 °F 94% 30.00 in 6.0 mi Calm Calm - N/A   Scattered Clouds
5:29 AM 75.2 °F - 73.4 °F 94% 30.00 in 7.0 mi WNW 3.5 mph - N/A   Scattered Clouds
5:56 AM 75.0 °F - 72.0 °F 90% 29.99 in 8.0 mi Calm Calm - N/A   Scattered Clouds
6:56 AM 75.9 °F - 71.1 °F 85% 30.00 in 10.0 mi WNW 3.5 mph - N/A   Mostly Cloudy
7:56 AM 77.0 °F - 71.1 °F 82% 30.02 in 10.0 mi Calm Calm - N/A   Mostly Cloudy
8:56 AM 78.1 °F - 71.1 °F 79% 30.05 in 10.0 mi ENE 3.5 mph - N/A   Overcast
9:56 AM 79.0 °F - 72.0 °F 79% 30.06 in 10.0 mi SSE 11.5 mph - N/A   Mostly Cloudy
10:11 AM 80.6 °F 84.6 °F 71.6 °F 74% 30.06 in 10.0 mi SSE 8.1 mph - N/A   Overcast
10:56 AM 80.1 °F 83.8 °F 72.0 °F 76% 30.06 in 10.0 mi South 9.2 mph - N/A   Overcast
11:56 AM 81.0 °F 85.2 °F 72.0 °F 74% 30.07 in 10.0 mi SE 8.1 mph - N/A   Overcast
12:02 PM 80.6 °F 85.4 °F 73.4 °F 79% 30.08 in 4.0 mi SE 9.2 mph - 0.00 in Rain Rain
12:12 PM 78.8 °F - 73.4 °F 83% 30.09 in 4.0 mi SE 10.4 mph - 0.04 in Rain Light Rain
12:19 PM 78.8 °F - 73.4 °F 83% 30.09 in 7.0 mi SE 12.7 mph 18.4 mph 0.04 in Rain Light Rain
12:56 PM 79.0 °F - 72.0 °F 79% 30.05 in 10.0 mi South 11.5 mph - 0.06 in   Overcast
1:56 PM 82.9 °F 87.5 °F 71.1 °F 67% 30.03 in 10.0 mi South 9.2 mph - N/A   Mostly Cloudy
2:56 PM 86.0 °F 92.2 °F 72.0 °F 63% 30.01 in 10.0 mi NW 4.6 mph - N/A   Scattered Clouds
3:56 PM 82.9 °F 86.5 °F 69.1 °F 63% 30.00 in 10.0 mi NW 6.9 mph - N/A   Scattered Clouds
4:56 PM 84.0 °F 87.8 °F 69.1 °F 61% 29.97 in 10.0 mi West 5.8 mph - N/A   Scattered Clouds
5:56 PM 86.0 °F 90.1 °F 69.1 °F 57% 29.96 in 10.0 mi Calm Calm - N/A   Scattered Clouds
6:56 PM 84.0 °F 88.4 °F 70.0 °F 63% 29.97 in 10.0 mi NW 3.5 mph - N/A   Scattered Clouds
7:56 PM 82.0 °F 86.7 °F 72.0 °F 71% 29.99 in 10.0 mi Calm Calm - N/A   Mostly Cloudy
8:56 PM 80.1 °F 84.5 °F 73.9 °F 81% 29.99 in 10.0 mi Calm Calm - N/A   Mostly Cloudy
9:56 PM 78.1 °F - 73.0 °F 84% 30.02 in 10.0 mi SW 3.5 mph - N/A   Mostly Cloudy
10:56 PM 78.1 °F - 73.0 °F 84% 30.02 in 10.0 mi Calm Calm - N/A   Scattered Clouds
11:56 PM 77.0 °F - 73.0 °F 88% 30.01 in 10.0 mi Calm Calm - N/A   Mostly Cloudy